• In Uzbekistan
  • List of Countries
  • For 7 days
  • Water Temperature
  • Satellite Maps
  • Weather Map
  • Weather Widgets
  • user-avatar
    Login

    Hourly Weather Vohma

    Today, 21 May, Monday

    Time Temperature Precipitation Wind Pressure Humidity
    00:00 +10°C° 0 mm 0 mps 766 mmHg 67%
    01:00 +9°C° 0 mm 0 mps 766 mmHg 68%
    02:00 +9°C° 0 mm 0 mps 766 mmHg 68%
    03:00 +9°C° 0 mm 0 mps 767 mmHg 68%
    04:00 +9°C° 0 mm 0 mps 767 mmHg 69%
    05:00 +9°C° 0 mm 0 mps 767 mmHg 69%
    06:00 +13°C° 0 mm 1 mps 767 mmHg 62%
    07:00 +15°C° 0 mm 1 mps 767 mmHg 56%
    08:00 +19°C° 0 mm 1 mps 767 mmHg 49%
    09:00 +20°C° 0 mm 1 mps 767 mmHg 44%
    10:00 +22°C° 0 mm 1 mps 767 mmHg 40%
    11:00 +24°C° 0 mm 1 mps 767 mmHg 35%
    12:00 +24°C° 0 mm 1 mps 767 mmHg 34%
    13:00 +25°C° 0 mm 1 mps 767 mmHg 33%
    14:00 +25°C° 0 mm 1 mps 767 mmHg 32%
    15:00 +25°C° 0 mm 1 mps 766 mmHg 34%
    16:00 +25°C° 0 mm 1 mps 766 mmHg 35%
    17:00 +24°C° 0 mm 1 mps 766 mmHg 37%
    18:00 +22°C° 0 mm 1 mps 766 mmHg 46%
    19:00 +20°C° 0 mm 1 mps 766 mmHg 55%
    20:00 +18°C° 0 mm 1 mps 765 mmHg 64%
    21:00 +16°C° 0 mm 1 mps 765 mmHg 66%
    22:00 +15°C° 0 mm 1 mps 765 mmHg 67%
    23:00 +13°C° 0 mm 1 mps 765 mmHg 68%

    Tomorrow, 22 May, Tuesday

    Time Temperature Precipitation Wind Pressure Humidity
    00:00 +13°C° 0 mm 1 mps 765 mmHg 68%
    01:00 +12°C° 0 mm 1 mps 765 mmHg 68%
    02:00 +12°C° 0 mm 1 mps 765 mmHg 68%
    03:00 +12°C° 0 mm 1 mps 765 mmHg 70%
    04:00 +12°C° 0 mm 1 mps 764 mmHg 72%
    05:00 +12°C° 0 mm 2 mps 764 mmHg 74%
    06:00 +14°C° 0 mm 2 mps 764 mmHg 69%
    07:00 +16°C° 0 mm 2 mps 764 mmHg 64%
    08:00 +18°C° 0 mm 2 mps 763 mmHg 60%
    09:00 +19°C° 0 mm 2 mps 763 mmHg 54%
    10:00 +21°C° 0 mm 3 mps 763 mmHg 47%
    11:00 +22°C° 0 mm 3 mps 762 mmHg 41%
    12:00 +22°C° 0 mm 3 mps 762 mmHg 41%
    13:00 +22°C° 0 mm 3 mps 762 mmHg 42%
    14:00 +21°C° 0 mm 3 mps 761 mmHg 42%
    15:00 +20°C° 0.1 mm 3 mps 761 mmHg 49%
    16:00 +19°C° 0.1 mm 3 mps 761 mmHg 56%
    17:00 +18°C° 0.1 mm 2 mps 760 mmHg 63%
    18:00 +17°C° 0 mm 2 mps 760 mmHg 70%
    19:00 +16°C° 0 mm 1 mps 760 mmHg 76%
    20:00 +14°C° 0 mm 1 mps 760 mmHg 83%
    21:00 +14°C° 0 mm 1 mps 760 mmHg 85%
    22:00 +13°C° 0 mm 1 mps 760 mmHg 87%
    23:00 +13°C° 0 mm 1 mps 760 mmHg 89%

    Day after tomorrow, 23 May, Wednesday

    Time Temperature Precipitation Wind Pressure Humidity
    00:00 +12°C° 0 mm 1 mps 760 mmHg 91%
    01:00 +11°C° 0 mm 1 mps 760 mmHg 93%
    02:00 +11°C° 0 mm 1 mps 760 mmHg 95%
    03:00 +10°C° 0 mm 0 mps 760 mmHg 94%
    04:00 +10°C° 0 mm 0 mps 760 mmHg 94%
    05:00 +10°C° 0 mm 0 mps 760 mmHg 94%
    06:00 +12°C° 0 mm 0 mps 760 mmHg 85%
    07:00 +15°C° 0 mm 1 mps 760 mmHg 77%
    08:00 +18°C° 0 mm 1 mps 760 mmHg 69%
    09:00 +20°C° 0.1 mm 1 mps 760 mmHg 64%
    10:00 +21°C° 0.1 mm 1 mps 761 mmHg 60%
    11:00 +22°C° 0.1 mm 1 mps 761 mmHg 55%
    12:00 +21°C° 0.9 mm 2 mps 761 mmHg 59%
    13:00 +21°C° 0.9 mm 2 mps 761 mmHg 62%
    14:00 +20°C° 0.9 mm 2 mps 761 mmHg 66%
    15:00 +20°C° 0.9 mm 2 mps 761 mmHg 67%
    16:00 +20°C° 0.9 mm 2 mps 761 mmHg 69%
    17:00 +20°C° 0.9 mm 2 mps 762 mmHg 70%
    18:00 +19°C° 0.2 mm 2 mps 762 mmHg 74%
    19:00 +17°C° 0.2 mm 2 mps 762 mmHg 78%
    20:00 +16°C° 0.2 mm 2 mps 762 mmHg 81%
    21:00 +15°C° 0 mm 2 mps 762 mmHg 83%
    22:00 +13°C° 0 mm 2 mps 763 mmHg 85%
    23:00 +12°C° 0 mm 2 mps 763 mmHg 87%

    24 May, Thursday

    Time Temperature Precipitation Wind Pressure Humidity
    00:00 +12°C° 0 mm 2 mps 763 mmHg 88%
    01:00 +10°C° 0 mm 2 mps 764 mmHg 88%
    02:00 +10°C° 0 mm 2 mps 764 mmHg 88%
    03:00 +10°C° 0 mm 2 mps 764 mmHg 88%
    04:00 +10°C° 0 mm 2 mps 765 mmHg 88%
    05:00 +10°C° 0 mm 3 mps 765 mmHg 88%
    06:00 +11°C° 0 mm 3 mps 765 mmHg 82%
    07:00 +13°C° 0 mm 3 mps 766 mmHg 77%
    08:00 +14°C° 0 mm 4 mps 766 mmHg 72%
    09:00 +15°C° 0 mm 4 mps 767 mmHg 66%
    10:00 +17°C° 0 mm 4 mps 767 mmHg 61%
    11:00 +17°C° 0 mm 5 mps 768 mmHg 55%
    12:00 +17°C° 0 mm 5 mps 768 mmHg 52%
    13:00 +17°C° 0 mm 5 mps 768 mmHg 49%
    14:00 +17°C° 0 mm 5 mps 768 mmHg 45%
    15:00 +17°C° 0 mm 5 mps 768 mmHg 44%
    16:00 +17°C° 0 mm 5 mps 768 mmHg 43%
    17:00 +16°C° 0 mm 5 mps 768 mmHg 41%
    18:00 +15°C° 0 mm 4 mps 769 mmHg 46%
    19:00 +13°C° 0 mm 3 mps 769 mmHg 52%
    20:00 +12°C° 0 mm 3 mps 769 mmHg 57%
    21:00 +10°C° 0 mm 3 mps 770 mmHg 59%
    22:00 +9°C° 0 mm 3 mps 770 mmHg 61%
    23:00 +8°C° 0 mm 2 mps 770 mmHg 63%

    25 May, Friday

    Time Temperature Precipitation Wind Pressure Humidity
    00:00 +7°C° 0 mm 2 mps 771 mmHg 65%
    01:00 +6°C° 0 mm 2 mps 771 mmHg 66%
    02:00 +6°C° 0 mm 2 mps 771 mmHg 67%
    03:00 +6°C° 0 mm 2 mps 771 mmHg 67%
    04:00 +6°C° 0 mm 2 mps 771 mmHg 67%
    05:00 +6°C° 0 mm 2 mps 772 mmHg 67%
    06:00 +8°C° 0 mm 2 mps 772 mmHg 61%
    07:00 +10°C° 0 mm 2 mps 772 mmHg 56%
    08:00 +13°C° 0 mm 2 mps 772 mmHg 51%
    09:00 +14°C° 0 mm 3 mps 772 mmHg 47%
    10:00 +16°C° 0 mm 3 mps 772 mmHg 42%
    11:00 +18°C° 0 mm 3 mps 772 mmHg 38%
    12:00 +18°C° 0 mm 3 mps 771 mmHg 37%
    13:00 +19°C° 0 mm 3 mps 771 mmHg 36%
    14:00 +19°C° 0 mm 3 mps 771 mmHg 35%
    15:00 +19°C° 0 mm 3 mps 771 mmHg 37%
    16:00 +19°C° 0 mm 3 mps 770 mmHg 38%
    17:00 +19°C° 0 mm 3 mps 770 mmHg 39%
    18:00 +18°C° 0 mm 2 mps 770 mmHg 47%
    19:00 +16°C° 0 mm 2 mps 770 mmHg 55%
    20:00 +14°C° 0 mm 2 mps 770 mmHg 63%
    21:00 +13°C° 0 mm 2 mps 770 mmHg 65%
    22:00 +10°C° 0 mm 2 mps 770 mmHg 66%
    23:00 +9°C° 0 mm 2 mps 770 mmHg 68%

    26 May, Saturday

    Time Temperature Precipitation Wind Pressure Humidity
    00:00 +10°C° 0 mm 1 mps 770 mmHg 69%
    01:00 +9°C° 0 mm 1 mps 770 mmHg 70%
    02:00 +9°C° 0 mm 1 mps 770 mmHg 71%
    03:00 +9°C° 0 mm 1 mps 770 mmHg 72%
    04:00 +9°C° 0 mm 1 mps 770 mmHg 72%
    05:00 +9°C° 0 mm 1 mps 770 mmHg 73%
    06:00 +11°C° 0 mm 1 mps 770 mmHg 67%
    07:00 +14°C° 0 mm 2 mps 770 mmHg 61%
    08:00 +16°C° 0 mm 2 mps 770 mmHg 55%
    09:00 +17°C° 0 mm 2 mps 770 mmHg 50%
    10:00 +19°C° 0 mm 2 mps 770 mmHg 45%
    11:00 +20°C° 0 mm 3 mps 770 mmHg 40%
    12:00 +21°C° 0 mm 3 mps 769 mmHg 39%
    13:00 +21°C° 0 mm 3 mps 769 mmHg 38%
    14:00 +22°C° 0 mm 3 mps 769 mmHg 37%
    15:00 +23°C° 0 mm 2 mps 768 mmHg 38%
    16:00 +23°C° 0 mm 2 mps 768 mmHg 39%
    17:00 +21°C° 0 mm 2 mps 768 mmHg 41%
    18:00 +20°C° 0 mm 2 mps 768 mmHg 49%
    19:00 +19°C° 0 mm 1 mps 767 mmHg 57%
    20:00 +16°C° 0 mm 1 mps 767 mmHg 66%
    21:00 +15°C° 0 mm 1 mps 768 mmHg 68%
    22:00 +13°C° 0 mm 1 mps 768 mmHg 70%
    23:00 +12°C° 0 mm 1 mps 768 mmHg 72%
    Show more